GW0755 Weather Reports


time (UTC)temp
C
wind
direction
speed
KPH
gust
KPH
rain 1hr
cm
rain 24hr
cm
rain mn
cm
humidity
%
barometer
mb
20260504081559 25 0 0.0 0.0 0.00 0.00 0.00 92 1013.4
20260504060118 25 0 0.0 0.0 0.00 0.00 0.00 92 1014.4
20260504050112 25 0 0.0 0.0 0.00 0.00 0.00 92 1015.2
20260504044552 25 0 0.0 0.0 0.00 0.00 0.00 92 1015.0
20260504043106 25 0 0.0 0.0 0.00 0.00 0.00 92 1015.1
20260504041554 25 0 0.0 0.0 0.00 0.00 0.00 92 1015.2
20260504040059 25 0 0.0 0.0 0.00 0.00 0.00 92 1015.2
20260504034549 25 0 0.0 0.0 0.00 0.00 0.00 92 1015.0
20260504033058 25 0 0.0 0.0 0.00 0.00 0.00 91 1014.9
20260504031558 25 0 0.0 1.6 0.00 0.00 0.00 91 1014.7
20260504030053 26 0 0.0 0.0 0.00 0.00 0.00 91 1014.7
20260504024557 26 0 0.0 0.0 0.00 0.00 0.00 91 1014.5
20260504023050 26 0 0.0 0.0 0.00 0.00 0.00 91 1014.2
20260504021554 26 0 0.0 0.0 0.00 0.00 0.00 91 1014.0
20260504020055 26 0 0.0 0.0 0.00 0.00 0.00 90 1014.1
20260504014558 26 0 0.0 0.0 0.00 0.00 0.00 90 1014.1
20260504013100 27 0 0.0 4.8 0.00 0.00 0.00 90 1013.7
20260504011549 27 0 0.0 4.8 0.00 0.00 0.00 90 1013.1
20260504010112 27 0 0.0 0.0 0.00 0.00 0.00 90 1013.4
20260504004550 27 0 0.0 0.0 0.00 0.00 0.00 89 1013.3
20260504003052 27 0 0.0 0.0 0.00 0.00 0.00 89 1013.4
20260504001600 27 0 0.0 0.0 0.00 0.00 0.00 89 1013.2
20260504000052 27 0 0.0 6.4 0.00 0.00 0.00 89 1012.9
20260503234549 28 134 1.6 9.7 0.00 0.00 0.00 88 1012.7
20260503233059 28 114 4.8 8.0 0.00 0.00 0.00 88 1012.8
20260503231554 28 0 1.6 14.5 0.00 0.00 0.00 87 1012.7
20260503230049 28 120 0.0 12.9 0.00 0.00 0.00 87 1013.0
20260503224546 28 94 4.8 12.9 0.00 0.00 0.00 86 1012.5
20260503223051 28 77 6.4 12.9 0.00 0.00 0.00 85 1012.5
20260503221600 29 136 3.2 12.9 0.00 0.00 0.00 84 1012.6
20260503214551 29 120 6.4 14.5 0.00 0.00 0.00 85 1012.8
20260503213051 29 103 9.7 16.1 0.00 0.00 0.00 84 1013.0
20260503211557 29 60 0.0 11.3 0.00 0.00 0.00 83 1013.0
20260503210054 29 39 0.0 9.7 0.00 0.00 0.00 83 1013.3
20260503204602 29 118 0.0 11.3 0.00 0.00 0.00 84 1013.2
20260503203058 30 92 3.2 8.0 0.00 0.00 0.00 83 1013.2
20260503201548 30 307 0.0 6.4 0.00 0.00 0.00 82 1013.4
20260503200051 30 311 0.0 4.8 0.00 0.00 0.00 79 1013.5
20260503194608 30 285 0.0 4.8 0.00 0.00 0.00 81 1013.4
20260503193051 30 254 1.6 9.7 0.00 0.00 0.00 82 1013.6
20260503191551 30 204 1.6 8.0 0.00 0.00 0.00 79 1013.6
20260503190058 28 36 0.0 8.0 0.00 0.00 0.00 84 1014.3
20260503184555 30 300 0.0 11.3 0.00 0.00 0.00 82 1014.5
20260503183103 30 197 6.4 22.5 0.00 0.00 0.00 83 1014.2
20260503181550 30 248 8.0 17.7 0.00 0.00 0.00 84 1014.3
20260503180059 30 127 8.0 17.7 0.00 0.00 0.00 84 1014.6
20260503174552 30 226 4.8 16.1 0.00 0.00 0.00 84 1014.6
20260503173137 29 217 6.4 20.9 0.00 0.00 0.00 87 1015.0
20260503171553 28 214 6.4 14.5 0.00 0.00 0.00 88 1015.1